User: anonymous   Login
Location: Unspecified
(0.0000°N, 0.0000°E)
Time: 01:57:54
(UTC+00:00)
Language:

FORMOSAT 3D - Orbit

View from above orbital plane
View from above orbital plane
View from above satellite
View from above satellite

Ground track
Ground track

The orbit data is extracted from the following two-line orbital elements,

1 29050U 06011D   17147.71533505 +.00000168 +00000-0 +46021-4 0  9995
2 29050 072.0159 206.3112 0050683 196.1109 163.8435 14.58505891593582
Epoch (UTC): 27 May 2017 17:10:04
Eccentricity: 0.0050683
inclination: 72.0159°
perigee height: 662 km
apogee height: 734 km
right ascension of ascending node: 206.3112°
argument of perigee: 196.1109°
revolutions per day: 14.58505891
mean anomaly at epoch: 163.8435°
orbit number at epoch: 59358

The dashed part of the orbit path shows where the satellite is in the earth's shadow,  

DLR